Atka, AK

2:40 PM HDT on June 27, 2017 (GMT -0900)
Atka

Weather History for PAAK - October, 2013

Change the Weather History Date:

Wednesday, October 30, 2013

  Actual Average (PADK) Record (PADK)
Temperature  
Mean Temperature 38 °F -  
Max Temperature 42 °F 44 °F 54 °F (2014)
Min Temperature 35 °F 35 °F 27 °F (1966)
Degree Days  
Heating Degree Days 26    
Moisture  
Dew Point 31 °F    
Average Humidity 75    
Maximum Humidity 87    
Minimum Humidity 65    
Precipitation  
Precipitation 0.00 in - - ()
Sea Level Pressure  
Sea Level Pressure 29.71 in    
Wind  
Wind Speed 16 mph (West)    
Max Wind Speed 23 mph    
Max Gust Speed 34 mph    
Visibility 9 miles    
Events      
Averages and records for this station are not official NWS values.
T = Trace of Precipitation, MM = Missing Value Source: NWS Daily Summary

Daily Weather History Graph

Daily Weather History Graph

Search for Another Location

Airport or City:

Trip Planner

Search our weather history database for the weather conditions in past years. The results will help you decide how hot, cold, wet, or windy it might be!

Date:

Astronomy

Oct. 30, 2013 Rise Set
Actual Time 9:29 AM HDT 7:10 PM HDT
Civil Twilight 8:53 AM HDT 7:46 PM HDT
Nautical Twilight 8:13 AM HDT 8:26 PM HDT
Astronomical Twilight 7:34 AM HDT 9:05 PM HDT
Moon 5:05 AM HDT (10/30) 5:26 PM HDT (10/30)
Length of Visible Light 10h 52m
Length of Day
9h 40m
Waning Crescent, 15% of the Moon is Illuminated
Oct 30
Waning Crescent
Nov 3
New
Nov 9
First Quarter
Nov 17
Full
Nov 25
Last Quarter

Hourly Weather History & Observations

Time (HDT) Temp. Windchill Dew Point Humidity Pressure Visibility Wind Dir Wind Speed Gust Speed Precip Events Conditions
12:16 AM 39.2 °F 30.2 °F 30.2 °F 70% 29.60 in 10.0 mi West 17.3 mph 32.2 mph N/A   Mostly Cloudy
12:36 AM 39.2 °F 29.0 °F 30.2 °F 70% 29.60 in 10.0 mi WNW 21.9 mph 27.6 mph N/A   Partly Cloudy
12:56 AM 39.2 °F 29.6 °F 28.4 °F 65% 29.61 in 10.0 mi WNW 19.6 mph 27.6 mph N/A   Partly Cloudy
1:16 AM 39.2 °F 29.3 °F 30.2 °F 70% 29.61 in 10.0 mi WNW 20.7 mph 25.3 mph N/A   Mostly Cloudy
1:36 AM 39.2 °F 29.8 °F 30.2 °F 70% 29.61 in 10.0 mi West 18.4 mph 24.2 mph N/A   Partly Cloudy
1:56 AM 39.2 °F 30.8 °F 32.0 °F 75% 29.62 in 10.0 mi WNW 15.0 mph - N/A   Mostly Cloudy
2:16 AM 37.4 °F 28.2 °F 30.2 °F 75% 29.63 in 5.0 mi West 16.1 mph 25.3 mph N/A   Overcast
2:36 AM 37.4 °F 29.3 °F 32.0 °F 81% 29.63 in 10.0 mi West 12.7 mph - N/A   Mostly Cloudy
2:56 AM 39.2 °F 30.2 °F 32.0 °F 75% 29.64 in 10.0 mi WNW 17.3 mph 27.6 mph N/A   Overcast
3:16 AM 39.2 °F 30.2 °F 32.0 °F 75% 29.64 in 10.0 mi West 17.3 mph 25.3 mph N/A   Overcast
3:36 AM 39.2 °F 30.8 °F 33.8 °F 81% 29.64 in 10.0 mi West 15.0 mph 21.9 mph N/A   Overcast
3:56 AM 37.4 °F 26.4 °F 30.2 °F 75% 29.65 in 8.0 mi WNW 23.0 mph 34.5 mph N/A   Mostly Cloudy
4:16 AM 37.4 °F 28.5 °F 30.2 °F 75% 29.65 in 10.0 mi WNW 15.0 mph 20.7 mph N/A   Mostly Cloudy
4:36 AM 39.2 °F 29.0 °F 33.8 °F 81% 29.65 in 10.0 mi WNW 21.9 mph 27.6 mph N/A   Mostly Cloudy
4:56 AM 37.4 °F 27.2 °F 32.0 °F 81% 29.66 in 9.0 mi WNW 19.6 mph 25.3 mph N/A   Overcast
5:16 AM 37.4 °F 27.8 °F 30.2 °F 75% 29.65 in 10.0 mi WNW 17.3 mph 24.2 mph N/A   Mostly Cloudy
5:36 AM 37.4 °F 27.2 °F 33.8 °F 87% 29.66 in 10.0 mi West 19.6 mph 25.3 mph N/A   Mostly Cloudy
5:56 AM 39.2 °F 30.2 °F 33.8 °F 81% 29.66 in 10.0 mi West 17.3 mph 24.2 mph N/A   Partly Cloudy
6:16 AM 37.4 °F 27.8 °F 30.2 °F 75% 29.67 in 6.0 mi West 17.3 mph 25.3 mph N/A   Mostly Cloudy
6:36 AM 39.2 °F 29.0 °F 32.0 °F 75% 29.67 in 9.0 mi WNW 21.9 mph 26.5 mph N/A   Mostly Cloudy
6:56 AM 37.4 °F 26.9 °F 32.0 °F 81% 29.68 in 10.0 mi WNW 20.7 mph 29.9 mph N/A   Overcast
7:16 AM 37.4 °F 29.3 °F 32.0 °F 81% 29.69 in 10.0 mi WNW 12.7 mph - N/A   Mostly Cloudy
7:36 AM 37.4 °F 28.9 °F 32.0 °F 81% 29.70 in 7.0 mi WNW 13.8 mph 24.2 mph N/A   Mostly Cloudy
7:56 AM 37.4 °F 27.8 °F 32.0 °F 81% 29.69 in 10.0 mi West 17.3 mph - N/A   Mostly Cloudy
8:16 AM 39.2 °F 30.2 °F 30.2 °F 70% 29.70 in 10.0 mi West 17.3 mph 25.3 mph N/A   Mostly Cloudy
8:36 AM 35.6 °F 25.5 °F 30.2 °F 81% 29.71 in 4.0 mi WNW 17.3 mph - N/A   Overcast
8:56 AM 37.4 °F 29.8 °F 30.2 °F 75% 29.71 in 7.0 mi WNW 11.5 mph 23.0 mph N/A   Overcast
9:16 AM 37.4 °F 27.2 °F 33.8 °F 87% 29.71 in 8.0 mi West 19.6 mph 27.6 mph N/A   Overcast
9:36 AM 39.2 °F 30.2 °F 30.2 °F 70% 29.71 in 10.0 mi West 17.3 mph 23.0 mph N/A   Mostly Cloudy
9:56 AM 39.2 °F 29.6 °F 30.2 °F 70% 29.72 in 10.0 mi WNW 19.6 mph 28.8 mph N/A   Mostly Cloudy
10:16 AM 39.2 °F 30.5 °F 32.0 °F 75% 29.72 in 10.0 mi NW 16.1 mph 20.7 mph N/A   Mostly Cloudy
10:36 AM 37.4 °F 28.2 °F 30.2 °F 75% 29.73 in 8.0 mi WNW 16.1 mph 28.8 mph N/A   Overcast
10:56 AM 37.4 °F 29.3 °F 30.2 °F 75% 29.73 in 10.0 mi WNW 12.7 mph 18.4 mph N/A   Scattered Clouds
11:16 AM 39.2 °F 31.6 °F 33.8 °F 81% 29.73 in 10.0 mi West 12.7 mph 18.4 mph N/A   Scattered Clouds
11:36 AM 41.0 °F 32.2 °F 33.8 °F 76% 29.73 in 10.0 mi West 18.4 mph 23.0 mph N/A   Mostly Cloudy
11:56 AM 37.4 °F 30.3 °F 30.2 °F 75% 29.74 in 5.0 mi WNW 10.4 mph 28.8 mph N/A   Mostly Cloudy
12:16 PM 37.4 °F 28.2 °F 30.2 °F 75% 29.74 in 3.0 mi WNW 16.1 mph 28.8 mph N/A   Overcast
12:36 PM 41.0 °F 32.8 °F 33.8 °F 76% 29.74 in 10.0 mi WNW 16.1 mph 19.6 mph N/A   Overcast
12:56 PM 42.8 °F 34.3 °F 33.8 °F 70% 29.74 in 10.0 mi West 19.6 mph 25.3 mph N/A   Overcast
1:16 PM 42.8 °F 35.1 °F 33.8 °F 70% 29.75 in 10.0 mi West 16.1 mph - N/A   Overcast
1:36 PM 42.8 °F 34.3 °F 32.0 °F 66% 29.75 in 10.0 mi WNW 19.6 mph - N/A   Overcast
1:56 PM 41.0 °F 33.9 °F 32.0 °F 70% 29.75 in 10.0 mi West 12.7 mph - N/A   Overcast
2:16 PM 42.8 °F 34.5 °F 32.0 °F 66% 29.74 in 10.0 mi West 18.4 mph 23.0 mph N/A   Overcast
2:36 PM 41.0 °F 33.1 °F 30.2 °F 65% 29.75 in 9.0 mi WSW 15.0 mph 19.6 mph N/A   Mostly Cloudy
2:56 PM 39.2 °F 29.3 °F 33.8 °F 81% 29.75 in 10.0 mi West 20.7 mph 31.1 mph N/A   Mostly Cloudy
3:16 PM 37.4 °F 28.5 °F 32.0 °F 81% 29.75 in 10.0 mi WSW 15.0 mph - N/A   Overcast
3:36 PM 41.0 °F 32.8 °F 33.8 °F 76% 29.74 in 10.0 mi West 16.1 mph 19.6 mph N/A   Overcast
3:56 PM 41.0 °F 32.8 °F 33.8 °F 76% 29.74 in 10.0 mi WSW 16.1 mph 19.6 mph N/A   Scattered Clouds
4:16 PM 41.0 °F 32.2 °F 30.2 °F 65% 29.74 in 10.0 mi WSW 18.4 mph - N/A   Scattered Clouds
4:36 PM 39.2 °F 31.2 °F 30.2 °F 70% 29.75 in 10.0 mi WSW 13.8 mph - N/A   Mostly Cloudy
4:56 PM 39.2 °F 31.2 °F 30.2 °F 70% 29.75 in 10.0 mi WSW 13.8 mph 23.0 mph N/A   Overcast
5:16 PM 41.0 °F 33.9 °F 32.0 °F 70% 29.75 in 10.0 mi West 12.7 mph 17.3 mph N/A   Overcast
5:36 PM 41.0 °F 32.8 °F 32.0 °F 70% 29.75 in 10.0 mi West 16.1 mph 19.6 mph N/A   Overcast
5:56 PM 41.0 °F 34.3 °F 30.2 °F 65% 29.76 in 10.0 mi West 11.5 mph - N/A   Overcast
6:16 PM 39.2 °F 32.5 °F 32.0 °F 75% 29.76 in 10.0 mi NW 10.4 mph - N/A   Overcast
6:36 PM 39.2 °F 33.6 °F 33.8 °F 81% 29.76 in 10.0 mi WNW 8.1 mph - N/A   Overcast
6:56 PM 39.2 °F 34.2 °F 32.0 °F 75% 29.75 in 10.0 mi West 6.9 mph - N/A   Overcast
7:16 PM 39.2 °F 34.2 °F 32.0 °F 75% 29.75 in 10.0 mi West 6.9 mph - N/A   Overcast
7:36 PM 37.4 °F 32.1 °F 32.0 °F 81% 29.75 in 10.0 mi West 6.9 mph - N/A   Overcast
7:56 PM 37.4 °F 32.8 °F 30.2 °F 75% 29.75 in 10.0 mi SW 5.8 mph - N/A   Overcast
8:16 PM 37.4 °F 32.1 °F 30.2 °F 75% 29.75 in 10.0 mi SW 6.9 mph - N/A   Overcast
8:36 PM 37.4 °F 31.4 °F 30.2 °F 75% 29.75 in 10.0 mi SW 8.1 mph - N/A   Overcast
8:56 PM 37.4 °F 31.4 °F 30.2 °F 75% 29.75 in 10.0 mi SW 8.1 mph - N/A   Overcast
9:16 PM 35.6 °F 29.9 °F 28.4 °F 75% 29.75 in 10.0 mi WSW 6.9 mph - N/A   Mostly Cloudy
9:36 PM 35.6 °F 31.7 °F 28.4 °F 75% 29.75 in 10.0 mi NNW 4.6 mph - N/A   Mostly Cloudy
9:56 PM 37.4 °F 34.9 °F 28.4 °F 70% 29.76 in 10.0 mi North 3.5 mph - N/A   Overcast
10:16 PM 37.4 °F 33.8 °F 30.2 °F 75% 29.75 in 10.0 mi SSW 4.6 mph - N/A   Overcast
10:36 PM 39.2 °F 33.6 °F 30.2 °F 70% 29.76 in 10.0 mi SW 8.1 mph - N/A   Overcast
10:56 PM 37.4 °F 29.8 °F 30.2 °F 75% 29.76 in 10.0 mi SW 11.5 mph - N/A   Overcast
11:16 PM 37.4 °F 34.9 °F 32.0 °F 81% 29.76 in 10.0 mi NW 3.5 mph - N/A   Overcast
11:36 PM 37.4 °F - 30.2 °F 75% 29.76 in 10.0 mi Calm Calm - N/A   Overcast
11:56 PM 35.6 °F - 28.4 °F 75% 29.76 in 10.0 mi Calm Calm - N/A   Mostly Cloudy